TimeCDT,TemperatureF,Dew PointF,Humidity,Sea Level PressureIn,VisibilityMPH,Wind Direction,Wind SpeedMPH,Gust SpeedMPH,PrecipitationIn,Events,Conditions,WindDirDegrees,DateUTC
12:55 AM,44.4,38.8,81,30.00,10.0,SSW,11.5,-,N/A,,Clear,200,2012-10-09 05:55:00
1:55 AM,45.9,39.2,78,29.99,10.0,SSW,10.4,-,N/A,,Clear,210,2012-10-09 06:55:00
2:55 AM,42.6,39.6,89,29.98,10.0,SSW,11.5,-,N/A,,Clear,200,2012-10-09 07:55:00
3:55 AM,43.3,39.9,88,29.97,10.0,SSW,9.2,-,N/A,,Clear,200,2012-10-09 08:55:00
4:55 AM,42.1,39.6,91,29.97,10.0,SSW,8.1,-,N/A,,Clear,200,2012-10-09 09:55:00
5:55 AM,42.3,40.1,92,29.97,10.0,SSW,10.4,-,N/A,,Clear,200,2012-10-09 10:55:00
6:55 AM,41.7,40.1,94,29.97,10.0,SSW,9.2,-,N/A,,Clear,200,2012-10-09 11:55:00
7:55 AM,44.2,41.4,90,29.98,10.0,SSW,11.5,-,N/A,,Clear,200,2012-10-09 12:55:00
8:55 AM,49.6,43.2,78,29.96,10.0,SSW,17.3,-,N/A,,Clear,200,2012-10-09 13:55:00
9:55 AM,55.0,44.2,67,29.96,10.0,SSW,19.6,27.6,N/A,,Clear,210,2012-10-09 14:55:00
10:55 AM,59.2,45.5,60,29.97,10.0,SSW,16.1,-,N/A,,Clear,210,2012-10-09 15:55:00
11:55 AM,61.7,46.6,58,29.96,10.0,SSW,11.5,-,N/A,,Clear,210,2012-10-09 16:55:00
12:55 PM,64.2,47.7,55,29.93,10.0,SSW,16.1,-,N/A,,Clear,200,2012-10-09 17:55:00
1:55 PM,66.6,48.9,53,29.91,10.0,SSW,10.4,20.7,N/A,,Partly Cloudy,210,2012-10-09 18:55:00
2:55 PM,65.8,48.7,54,29.90,10.0,SSW,11.5,-,N/A,,Mostly Cloudy,210,2012-10-09 19:55:00
3:55 PM,65.7,49.6,56,29.90,10.0,WSW,8.1,-,N/A,,Overcast,250,2012-10-09 20:55:00
4:55 PM,64.0,50.4,61,29.90,10.0,West,4.6,-,N/A,,Overcast,270,2012-10-09 21:55:00
5:29 PM,62.6,51.8,68,29.91,10.0,West,4.6,-,N/A,,Light Drizzle,270,2012-10-09 22:29:00
5:46 PM,62.6,53.6,72,29.92,3.0,West,9.2,-,N/A,Rain,Light Rain,260,2012-10-09 22:46:00
5:55 PM,59.0,57.2,94,30.02,3.0,West,6.9,-,N/A,,Light Drizzle,280,2012-10-09 22:55:00
6:22 PM,57.2,57.2,100,29.95,2.0,WNW,9.2,-,N/A,Rain,Light Rain,290,2012-10-09 23:22:00
6:49 PM,55.4,55.4,100,29.95,3.0,NNW,6.9,-,N/A,,Light Drizzle,330,2012-10-09 23:49:00
6:55 PM,55.0,54.9,99,29.96,5.0,NNW,6.9,-,0.04,,Light Drizzle,330,2012-10-09 23:55:00
7:26 PM,55.4,55.4,100,29.98,10.0,WNW,3.5,-,N/A,,Overcast,300,2012-10-10 00:26:00
7:55 PM,54.3,51.4,90,29.99,10.0,North,8.1,-,0.00,,Overcast,350,2012-10-10 00:55:00
8:55 PM,54.1,47.1,77,30.03,10.0,North,8.1,-,N/A,,Overcast,360,2012-10-10 01:55:00
9:55 PM,53.1,45.5,75,30.06,10.0,North,10.4,19.6,N/A,,Overcast,360,2012-10-10 02:55:00
10:55 PM,48.4,41.0,76,30.10,10.0,North,8.1,-,N/A,,Partly Cloudy,360,2012-10-10 03:55:00
11:55 PM,46.4,38.8,75,30.12,10.0,NNW,5.8,-,N/A,,Clear,340,2012-10-10 04:55:00